Terug naar catalogus

THORAD AGENA D DEB

ActiefSSO
NORAD 42543·DEBRIS·🇺🇸 United States

Gelanceerd Apr 8, 1970 vanaf Vandenberg Space Force Base

Loading…

Volgende Passages (komende 24 uur)

TLE

VersSource: Space-Track

Epoch: Sep 12, 2026, 05:45 UTC

1 42543U 70025SZ  26255.24022655  .00000356  00000-0  79876-3 0  9992
2 42543  99.7819 263.8957 0180812 135.4637 226.1179 13.28147123619749

Volg THORAD AGENA D DEB in realtime met AllMySat

Download on the App Store